Location: Newark
(55.7678°N, 23.6664°E)
Time: 13:04:53
(UTC+00:00)

N. Korean satellite - Visible Passes

Search period start: 24 September 2020 00:00
Search period end: 04 October 2020 00:00
Orbit: 455 x 503 km, 97.2° (Epoch: 23 September)

Date Brightness Start Highest point End Pass type
(mag) Time Alt. Az. Time Alt. Az. Time Alt. Az.
26 Sep 9.5 03:18:14 10° NE 03:21:11 22° E 03:24:06 10° SE visible
27 Sep 10.0 02:53:04 10° ENE 02:54:54 13° E 02:56:42 10° ESE visible
29 Sep 8.8 03:33:17 10° NNE 03:36:35 31° E 03:39:48 10° SSE visible
30 Sep 9.8 03:07:46 10° NE 03:10:20 18° E 03:12:52 10° SE visible
01 Oct 10.4 02:43:24 10° ENE 02:43:59 10° E 02:44:35 10° E visible
02 Oct 8.0 03:48:24 10° NNE 03:51:54 43° E 03:55:19 10° S visible
03 Oct 9.3 03:22:41 10° NE 03:25:43 24° E 03:28:41 10° SSE visible
